Showing default

JILIN-01 KUANFU 01, 45016

Orbit data source: Space-Track

JILIN-01 KUANFU 01, 45016 is a payload satellite owned by Changguang WJ (CN) in SSO that was launched on Wed, 15 Jan 2020 UTC via a CHANG ZHENG 2D launch vehicle from the Taiyaun Space Center, China (TSC). Payload-class satellites include a variety of spacecraft equipped with specific instruments for various scientific and technological missions. These include communications satellites like Starlink; space stations such as the ISS; scientific satellites like the Hubble; Earth observation satellites from companies like Planet Labs, Umbra, and HawkEye 360; GPS; miniature CubeSats for education and research; and military/defense satellites.

Loading next visibility...
Identifier
45016, 2020-003A
Orbit
SSO
Country
Flag of CNCN / PRC
Related business
Manufacturer
HARB/CIOMP
Mission
Operational Commercial Imaging
Bus & Motor
JL-1, Unknown motor
Mass
1,250 kg wet, 1,250 kg dry
Launch date (UTC)
2020-01-15 (6 years ago)
Launch vehicle
CHANG ZHENG 2D
Launch site
Taiyaun Space Center, China (TSC)
Object type
Payload
Rocket body
Debris
Shape & HBR
Box + 2 Pan, 0.8 m
Radar Cross Section
2.000 m², Large (>1 m²)

Expand to show TLE details & history
Last TLE update: 11 hours ago

TLE from 11 hours ago
0 JILIN-01 KUANFU 01
1 45016U 20003A   25261.29391162  .00004104  00000-0  25550-3 0  9999
2 45016  97.5340 335.3088 0004685 196.6678 163.4399 15.10138869314298
Epoch: 2025-09-18T07:03Z
TLE epoch observation values (Epoch: 2025-09-18T07:03:13.963Z)
Latitude
0.00003°
Longitude
-127.95696°
Altitude
541.955 km
Speed
7.59 km/s
True Right ascension
22h 21m 14s
True Declination
0° 00' 00"
Sunlit
Object was in full shadow at epoch
Visualization orbit readout
Latitude
Unknown
Longitude
Unknown
Altitude
Unknown
Speed
Unknown
Apparent Right ascension
Unknown
Apparent Declination
Unknown
Sunlit
N/A
Visualization observer readout
Local Sidereal Time
10:43:03
Azimuth
Unknown
Elevation
Unknown
Doppler factor
Unknown
Orbital elements
Apogee altitude
535.998 km
Perigee altitude
529.523 km
Semi-major axis
6,910.898 km
Eccentricity
0.00047
Inclination
97.534°
RAAN
335.3088°
Arg. of periapsis
196.6678°
True anomaly
163.45519°
Mean anomaly
163.4399°
Eccentric anomaly
163.44755°
Mean motion
3.77782 °/min
Orbital period
95.29 mins
BSTAR
0.0002555
Loading maneuver chart data...
Computing Atmospheric mass density...
Loading historical data...
Loading historical data...
Loading historical data...
Loading historical data...
Loading historical data...
Loading historical data...
Loading historical data...

Documentation

Showing up to 5 results
|